Location: Unspecified
(44.4377°N, 88.0525°W)
Time: 05:13:30
(UTC-06:00)

Okean 3 - Visible Passes

Search period start: 04 March 2015 00:00
Search period end: 14 March 2015 01:00
Orbit: 581 x 607 km, 82.5° (Epoch: 03 March)

Date Brightness Start Highest point End Pass type
(mag) Time Alt. Az. Time Alt. Az. Time Alt. Az.
04 Mar 5.7 03:32:42 21° NNE 03:32:42 21° NNE 03:34:08 10° NNE visible
04 Mar 5.7 05:09:21 10° NW 05:09:21 10° NW 05:09:22 10° NW visible
05 Mar 5.6 03:42:22 19° N 03:42:22 19° N 03:43:38 10° N visible
06 Mar 5.7 03:51:59 17° N 03:51:59 17° N 03:53:01 10° N visible
07 Mar 5.8 04:01:34 14° NNW 04:01:34 14° NNW 04:02:16 10° N visible
08 Mar 5.9 05:11:06 11° NNW 05:11:06 11° NNW 05:11:21 10° NNW visible
09 Mar 6.6 03:44:00 10° NNE 03:44:00 10° NNE 03:44:05 10° NNE visible
10 Mar 6.5 03:53:29 11° NNE 03:53:29 11° NNE 03:53:37 10° N visible
11 Mar 6.4 04:02:58 10° N 04:02:58 10° N 04:03:03 10° N visible
